EW8108 Weather Reports


Display with metric or nautical units.
time (UTC)temp
F
wind
direction
speed
MPH
gust
MPH
rain 1hr
in
rain 24hr
in
rain mn
in
humidity
%
barometer
mb
20220703180254 96 225 0.0 3.0 0.00 0.00 0.00 45 978.1
20220703175307 96 237 0.0 0.0 0.00 0.00 0.00 45 978.2
20220703174243 96 239 0.0 3.0 0.00 0.00 0.00 44 978.3
20220703173235 95 276 0.0 1.0 0.00 0.00 0.00 46 978.3
20220703172207 95 252 0.0 0.0 0.00 0.00 0.00 49 978.5
20220703171200 94 236 0.0 2.0 0.00 0.00 0.00 49 978.6
20220703170216 94 271 0.0 4.0 0.00 0.00 0.00 51 978.7
20220703165231 93 266 0.0 2.0 0.00 0.00 0.00 54 978.7
20220703164238 92 190 0.0 3.0 0.00 0.00 0.00 55 978.8
20220703163204 91 184 0.0 3.0 0.00 0.00 0.00 56 978.9
20220703162205 91 226 0.0 5.0 0.00 0.00 0.00 56 978.9
20220703161148 90 252 0.0 1.0 0.00 0.00 0.00 57 978.8
20220703160139 89 213 0.0 3.0 0.00 0.00 0.00 58 978.8
20220703155159 89 234 0.0 0.0 0.00 0.00 0.00 58 978.7
20220703154152 87 219 0.0 0.0 0.00 0.00 0.00 59 978.6
20220703153201 87 257 0.0 2.0 0.00 0.00 0.00 58 978.7
20220703152141 86 234 0.0 4.0 0.00 0.00 0.00 56 978.8
20220703151108 87 202 0.0 3.0 0.00 0.00 0.00 56 978.6
20220703150051 86 235 0.0 4.0 0.00 0.00 0.00 53 978.5
20220703145051 85 215 0.0 6.0 0.00 0.00 0.00 50 978.5
20220703144053 85 204 0.0 4.0 0.00 0.00 0.00 47 978.5
20220703143049 84 300 0.0 2.0 0.00 0.00 0.00 37 978.4
20220703142027 83 229 0.0 7.0 0.00 0.00 0.00 33 978.4
20220703141011 83 235 0.0 6.0 0.00 0.00 0.00 30 978.4
20220703140015 83 244 0.0 5.0 0.00 0.00 0.00 28 978.3
20220703135039 83 244 0.0 2.0 0.00 0.00 0.00 26 978.2
20220703134058 82 234 0.0 0.0 0.00 0.00 0.00 16 978.1
20220703133035 81 221 0.0 0.0 0.00 0.00 0.00 6 977.9
20220703132020 81 216 0.0 4.0 0.00 0.00 0.00 1 977.9
20220703131015 79 239 0.0 0.0 0.00 0.00 0.00 1 977.9
20220703130031 79 232 0.0 0.0 0.00 0.00 0.00 1 977.8
20220703125026 79 246 0.0 0.0 0.00 0.00 0.00 1 977.9
20220703124020 78 248 0.0 3.0 0.00 0.00 0.00 1 977.9
20220703123031 78 229 0.0 0.0 0.00 0.00 0.00 1 977.9
20220703122020 78 232 0.0 0.0 0.00 0.00 0.00 1 978.0
20220703120949 77 232 0.0 0.0 0.00 0.00 0.00 1 977.9
20220703115941 77 232 0.0 0.0 0.00 0.00 0.00 1 977.7
20220703114920 77 231 0.0 0.0 0.00 0.00 0.00 1 977.5
20220703113920 77 231 0.0 0.0 0.00 0.00 0.00 1 977.5
20220703112846 78 231 0.0 0.0 0.00 0.00 0.00 1 977.4
20220703111843 78 228 0.0 0.0 0.00 0.00 0.00 1 977.3
20220703110814 78 228 0.0 0.0 0.00 0.00 0.00 1 977.2
20220703105817 78 222 0.0 0.0 0.00 0.00 0.00 1 977.1
20220703104746 78 222 0.0 0.0 0.00 0.00 0.00 1 977.0
20220703103713 78 221 0.0 0.0 0.00 0.00 0.00 1 976.9
20220703102718 78 222 0.0 1.0 0.00 0.00 0.00 1 976.7
20220703101730 78 221 0.0 0.0 0.00 0.00 0.00 1 976.9
20220703100752 78 219 0.0 0.0 0.00 0.00 0.00 1 976.8
20220703095757 78 218 0.0 0.0 0.00 0.00 0.00 1 976.8
20220703094749 78 246 0.0 3.0 0.00 0.00 0.00 1 976.8
20220703093753 79 250 0.0 2.0 0.00 0.00 0.00 1 976.8
20220703092724 79 258 0.0 0.0 0.00 0.00 0.00 1 976.8
20220703091702 79 261 0.0 2.0 0.00 0.00 0.00 1 976.9
20220703090658 79 245 0.0 7.0 0.00 0.00 0.00 1 977.0
20220703085654 79 256 0.0 5.0 0.00 0.00 0.00 1 977.0
20220703084619 79 249 0.0 4.0 0.00 0.00 0.00 1 977.0
20220703083559 79 288 0.0 3.0 0.00 0.00 0.00 1 977.0
20220703082542 79 244 0.0 7.0 0.00 0.00 0.00 1 976.9
20220703081530 80 235 0.0 1.0 0.00 0.00 0.00 1 976.6
20220703080526 80 263 0.0 7.0 0.00 0.00 0.00 1 976.6
20220703075544 80 240 0.0 0.0 0.00 0.00 0.00 1 976.6
20220703074544 80 255 0.0 0.0 0.00 0.00 0.00 1 976.6
20220703073524 80 256 0.0 0.0 0.00 0.00 0.00 1 976.5
20220703072544 80 294 0.0 0.0 0.00 0.00 0.00 1 976.5
20220703071527 81 255 0.0 6.0 0.00 0.00 0.00 1 976.5
20220703070521 81 259 0.0 0.0 0.00 0.00 0.00 1 976.5
20220703065501 81 262 0.0 5.0 0.00 0.00 0.00 4 976.4
20220703064428 81 248 0.0 4.0 0.00 0.00 0.00 8 976.3
20220703063427 81 217 0.0 1.0 0.00 0.00 0.00 11 976.2
20220703062403 82 196 0.0 0.0 0.00 0.00 0.00 15 976.2
20220703061340 82 191 0.0 2.0 0.00 0.00 0.00 19 976.2
20220703060353 82 229 0.0 6.0 0.00 0.00 0.00 22 976.2
20220703055355 83 259 0.0 3.0 0.00 0.00 0.00 26 976.1
20220703054352 83 241 0.0 0.0 0.00 0.00 0.00 29 976.1
20220703053334 83 236 0.0 0.0 0.00 0.00 0.00 32 976.0
20220703052312 84 233 0.0 0.0 0.00 0.00 0.00 36 975.9
20220703051328 84 227 0.0 3.0 0.00 0.00 0.00 41 975.9
20220703050349 84 234 0.0 0.0 0.00 0.00 0.00 44 975.8
20220703045404 85 233 0.0 2.0 0.00 0.00 0.00 47 975.7
20220703044425 85 245 0.0 0.0 0.00 0.00 0.00 50 975.8
20220703043436 85 281 0.0 0.0 0.00 0.00 0.00 52 975.7
20220703042415 86 281 0.0 2.0 0.00 0.00 0.00 54 975.5
20220703041415 86 212 0.0 4.0 0.00 0.00 0.00 56 975.5
20220703040341 87 209 0.0 0.0 0.00 0.00 0.00 57 975.2
20220703035400 87 222 0.0 6.0 0.00 0.00 0.00 59 975.2
20220703034414 87 261 0.0 4.0 0.00 0.00 0.00 59 975.0
20220703033424 88 223 0.0 5.0 0.00 0.00 0.00 58 974.8
20220703032418 88 261 0.0 4.0 0.00 0.00 0.00 57 974.5
20220703031416 89 214 0.0 0.0 0.00 0.00 0.00 56 974.3
20220703030416 89 250 0.0 0.0 0.00 0.00 0.00 55 974.2
20220703025409 90 154 0.0 2.0 0.00 0.00 0.00 54 973.9
20220703024410 90 132 0.0 0.0 0.00 0.00 0.00 52 973.8
20220703023427 91 127 0.0 0.0 0.00 0.00 0.00 51 973.6
20220703022446 91 190 0.0 0.0 0.00 0.00 0.00 50 973.4
20220703021420 91 184 0.0 0.0 0.00 0.00 0.00 48 973.4
20220703020402 91 243 0.0 0.0 0.00 0.00 0.00 47 973.2
20220703015353 91 241 0.0 0.0 0.00 0.00 0.00 46 973.2
20220703014340 92 241 0.0 0.0 0.00 0.00 0.00 46 973.1
20220703013315 93 241 0.0 0.0 0.00 0.00 0.00 44 972.9
20220703012311 93 241 0.0 0.0 0.00 0.00 0.00 44 972.7
20220703011307 94 242 0.0 0.0 0.00 0.00 0.00 43 972.6
20220703010259 94 241 0.0 0.0 0.00 0.00 0.00 42 972.5
20220703005250 95 241 0.0 0.0 0.00 0.00 0.00 42 972.5
20220703004256 95 238 0.0 0.0 0.00 0.00 0.00 41 972.4
20220703003312 96 246 0.0 0.0 0.00 0.00 0.00 40 972.3
20220703002327 96 246 0.0 0.0 0.00 0.00 0.00 39 972.3
20220703001301 97 238 0.0 0.0 0.00 0.00 0.00 38 972.3
20220703000230 98 237 0.0 1.0 0.00 0.00 0.00 37 972.3
20220702235155 99 199 0.0 0.0 0.00 0.00 0.00 36 972.3
20220702234129 100 239 0.0 0.0 0.00 0.00 0.00 35 972.2
20220702233114 101 233 0.0 4.0 0.00 0.00 0.00 36 972.4
20220702232101 101 113 0.0 3.0 0.00 0.00 0.00 34 972.4
20220702231121 101 244 0.0 0.0 0.00 0.00 0.00 34 972.4
20220702230054 102 156 0.0 0.0 0.00 0.00 0.00 33 972.6
20220702225111 102 208 0.0 2.0 0.00 0.00 0.00 32 972.7
20220702224039 102 219 0.0 2.0 0.00 0.00 0.00 33 972.8
20220702223035 102 147 0.0 0.0 0.00 0.00 0.00 34 973.0
20220702222051 102 142 0.0 0.0 0.00 0.00 0.00 34 973.1
20220702221041 102 129 0.0 0.0 0.00 0.00 0.00 34 973.2
20220702220036 101 198 0.0 0.0 0.00 0.00 0.00 35 973.3
20220702215035 101 225 0.0 0.0 0.00 0.00 0.00 36 973.4
20220702214013 100 221 0.0 1.0 0.00 0.00 0.00 38 973.6
20220702213028 100 245 0.0 0.0 0.00 0.00 0.00 38 973.7
20220702212041 101 236 0.0 1.0 0.00 0.00 0.00 37 973.7
20220702211036 101 228 0.0 0.0 0.00 0.00 0.00 38 973.8
20220702210017 100 279 0.0 0.0 0.00 0.00 0.00 39 973.8
20220702204951 99 262 0.0 0.0 0.00 0.00 0.00 40 973.9
20220702203931 99 242 0.0 4.0 0.00 0.00 0.00 40 974.0
20220702202922 98 184 0.0 0.0 0.00 0.00 0.00 41 974.1
20220702201947 98 257 0.0 6.0 0.00 0.00 0.00 43 974.2
20220702200931 99 261 0.0 5.0 0.00 0.00 0.00 41 974.3
20220702195912 98 252 0.0 3.0 0.00 0.00 0.00 43 974.4
20220702194843 98 32 0.0 1.0 0.00 0.00 0.00 44 974.3
20220702193901 97 225 0.0 6.0 0.00 0.00 0.00 45 974.6
20220702192850 97 266 0.0 1.0 0.00 0.00 0.00 44 974.8
20220702191838 98 267 0.0 0.0 0.00 0.00 0.00 43 974.9
20220702190807 98 271 0.0 0.0 0.00 0.00 0.00 44 975.1
20220702185828 98 243 0.0 0.0 0.00 0.00 0.00 45 975.2
20220702184807 97 247 0.0 0.0 0.00 0.00 0.00 46 975.3
20220702183823 97 259 0.0 0.0 0.00 0.00 0.00 45 975.5
20220702182824 97 225 0.0 0.0 0.00 0.00 0.00 46 975.6
20220702181809 97 228 0.0 1.0 0.00 0.00 0.00 46 975.7
20220702180810 96 257 0.0 0.0 0.00 0.00 0.00 48 975.8